Weather in Letniy Navolok

Russia / Arkhangel'skaya Oblast'     65°09′22″N   37°05′57″E
temp.,
°C
wind,
m/s
gust,
m/s
humid.,
%
clouds,
%
prec.,
mm/h
press.,
hPa
HPBL,
m
26 july, mon
mon2600:00+12wsw4573100 0.0 101490
03:00+12w5884100 0.0 1013135
06:00+12nw7118772 0.0 1014238
09:00+11n568325 0.0 1016262
12:00+11nne56715 0.0 1019498
15:00+11n236835 0.0 1019206
18:00+11nw226912 0.0 1020109
21:00+11wnw22690 0.0 102095
27 july, tue
tue2700:00+11w44715 0.0 1021101
03:00+12w44715 0.0 1021122
06:00+11wsw44745 0.0 1021117
09:00+11wnw33775 0.0 102179
12:00+12wnw337265 0.0 102081
15:00+12w337018 0.0 102071
18:00+13wnw22655 0.0 101856
21:00+13ssw22635 0.0 101724
28 july, wed
wed2800:00+13ssw45679 0.0 101654
03:00+13ssw6975100 0.2 1013117
06:00+13sw7117922 0.3 1010153
09:00+12w679510 0.3 1008102
12:00+12n459217 0.0 1009116
15:00+12ene11831 0.0 100937
18:00+13e44820 0.0 100848
21:00+12ese678412 0.0 1006117
29 july, thu
thu2900:00+12se5683100 0.0 100682
03:00+12se4582100 0.0 100369
06:00+12se338093 0.0 100254
09:00+13ese338198 0.2 100051
12:00+12ene4588100 0.4 99971
15:00+13ene458985 0.6 99866
18:00+13ene6792100 0.3 996107
21:00+12ene789097 0.3 995123
30 july, fri
fri3000:00+12e6891100 0.0 994138
03:00+12ene4592100 0.0 99380
06:00+11ene7896100 0.0 993121
09:00+11ene6796100 0.0 994153
12:00+12e4598100 0.0 995100
15:00+12e2298100 0.1 99657
18:00+12ssw3399100 0.1 99758
21:00+13ssw3395100 0.1 99727